Starlink 32221

operational
NORAD ID: 60342 Int'l Des: 2024-136 Owner: SPXS Country: US Constellation: starlink
LEOCIRCULAR

关于 Starlink 32221

正在加载描述...

实时位置

正在加载3D地球...

即将过境

高度历史

Altitude vs Time

uPlot chart will show altitude changes over time

两行轨道根数

1 60342U 24136P 25307.68692179 -.00000158 00000-0 68053-5 0 9998
2 60342 53.1604 300.8885 0001121 103.6042 256.5084 15.30194867 70370
Epoch: Nov 3, 2025 • Age: 11 hours

当前状态

高度 475.4 km
速度 7.63 km/s
星下点 17.17°N, 144.87°W
发射日期 Aug 2, 2024
运行时间 1.2 years
类型 internet

技术详情

分类 Payload
质量 730.00 kg
干质量 700.00 kg
总质量 730.00 kg
长度 0.30 m
直径 4.10 m
跨度 29.00 m
形状 Box + pan
制造商 SPXS
平台类型 Starlink V2M
阶段状态 In Orbit
所有者/国家 SPXS/US

大型星座

Loading constellations...